Hourly Data Report for October 15, 2015

All times are specified in Local Standard Time (LST). Add 1 hour to adjust for Daylight Saving Time where and when it is observed.

GJOA HAVEN A
NUNAVUT

68°38'08.000" N
95°51'01.000" W
46.90 m
2302337
71597
YHK

Download Data

Hourly Data (October 2015)
Hourly Data Report for October 15, 2015
Temp Definition
°C
Dew Point Temp Definition
°C
Rel Hum Definition
%
Wind Dir Definition
10's deg

Wind Spd Definition
km/h
Visibility Definition
km
Stn Press Definition
kPa
Hmdx Definition


Wind Chill Definition


Weather Definition


TIME
00:00 Legend Double Dagger -14.0 -15.3 90 30 30 16.1 100.59   -25 LegendNANA
01:00 Legend Double Dagger -12.7 -14.2 89 30 30 16.1 100.56   -23 Snow
02:00 Legend Double Dagger -12.6 -14.5 86 30 32 9.7 100.53   -23 Snow
03:00 Legend Double Dagger -12.5 -14.4 86 31 30 4.8 100.52   -23 Snow
04:00 Legend Double Dagger -12.2 -14.4 84 31 35 6.4 100.53   -23 Snow
05:00 Legend Double Dagger -12.9 -14.5 88 30 34 9.7 100.53   -24 Snow
06:00 Legend Double Dagger -12.6 -14.6 85 30 28 11.3 100.50   -23 Snow
07:00 Legend Double Dagger -12.5 -14.2 87 30 32 9.7 100.49   -23 Snow
08:00 Legend Double Dagger -12.9 -14.8 86 31 32 16.1 100.51   -24 LegendNANA
09:00 Legend Double Dagger -13.1 -15.1 85 33 30 11.3 100.52   -24 Snow
10:00 Legend Double Dagger -13.1 -15.6 82 31 32 12.9 100.53   -24 LegendNANA
11:00 Legend Double Dagger -12.7 -14.7 85 31 34 14.5 100.53   -24 Snow
12:00 Legend Double Dagger -12.6 -14.9 83 31 30 16.1 100.55   -23 LegendNANA
13:00 Legend Double Dagger -12.6 -14.8 84 30 30 16.1 100.59   -23 LegendNANA
14:00 Legend Double Dagger -12.9 -14.6 87 30 26 16.1 100.60   -23 LegendNANA
15:00 Legend Double Dagger -12.1 -13.6 89 31 24 16.1 100.61   -21 Snow
16:00 Legend Double Dagger -10.8 -12.7 86 31 32 11.3 100.63   -21 Snow
17:00 Legend Double Dagger -10.3 -12.1 87 31 32 12.9 100.64   -20 Snow
18:00 Legend Double Dagger -10.7 -12.3 88 33 34 4.8 100.66   -21 Snow
19:00 Legend Double Dagger -10.5 -11.8 90 31 24 4.8 100.66   -19 Snow
20:00 Legend Double Dagger -9.8 -11.1 90 28 22 12.9 100.67   -18 Snow
21:00 Legend Double Dagger -9.4 -10.6 91 29 30 6.4 100.66   -19 Snow
22:00 Legend Double Dagger -8.8 -9.9 92 30 28 16.1 100.68   -18 Snow
23:00 Legend Double Dagger -8.3 -9.5 91 32 32 16.1 100.70   -18 Freezing Rain

Notes on Data Quality.

Legend

  • E = Estimated
  • M = Missing
  • NA = Not Available
  • ‡ = Partner data that is not subject to review by the National Climate Archives
Date modified: